STARLINK-11385, 62014

Orbit data source: Space-Track

STARLINK-11385, 62014 is a payload satellite owned by SpaceX/Seattle (US) in LEO that was launched on Mon, 18 Nov 2024 UTC via an FALCON 9 launch vehicle from the Air Force Western Test Range (AFWTR). Payload-class satellites include a variety of spacecraft equipped with specific instruments for various scientific and technological missions. These include communications satellites like Starlink; space stations such as the ISS; scientific satellites like the Hubble; Earth observation satellites from companies like Planet Labs, Umbra, and HawkEye 360; GPS; miniature CubeSats for education and research; and military/defense satellites.

Loading next visibility...
Identifier
62014, 2024-213G
Orbit
LEO
Country
Flag of USUS
Related business
Manufacturer
SpaceX/Seattle
Mission
Operational Commercial Communications
Bus & Motor
STARLINK V2MD, Unknown motor
Mass
960 kg wet, ~910 kg dry
Launch date (UTC)
2024-11-18 (10 months ago)
Launch vehicle
FALCON 9
Launch site
Air Force Western Test Range (AFWTR)
Object type
Payload
Rocket body
Debris
Shape & HBR
Box + 2 Pan, 14.5 m
Radar Cross Section
36.964 m², Large (>1 m²)

Expand to show TLE details & history
Last TLE update: 8 hours ago

TLE from 8 hours ago
0 STARLINK-11385
1 62014U 24213G   25260.95965056  .00254331  00000-0  20242-2 0  9995
2 62014  53.1579 172.9304 0001223 160.4530 199.6535 15.69902410 47789
Epoch: 2025-09-17T23:01Z
TLE epoch observation values (Epoch: 2025-09-17T23:01:53.808Z)
Latitude
-0.00002°
Longitude
-169.67193°
Altitude
360.867 km
Speed
7.694 km/s
True Right ascension
11h 31m 43s
True Declination
0° 00' 00"
Sunlit
Object was in daylight at epoch
Visualization orbit readout
Latitude
Unknown
Longitude
Unknown
Altitude
Unknown
Speed
Unknown
Apparent Right ascension
Unknown
Apparent Declination
Unknown
Sunlit
N/A
Visualization observer readout
Local Sidereal Time
23:28:05
Azimuth
Unknown
Elevation
Unknown
Doppler factor
Unknown
Orbital elements
Apogee altitude
360.261 km
Perigee altitude
358.613 km
Semi-major axis
6,737.574 km
Eccentricity
0.00012
Inclination
53.1579°
RAAN
172.9304°
Arg. of periapsis
160.453°
True anomaly
199.64879°
Mean anomaly
199.6535°
Eccentric anomaly
199.65114°
Mean motion
3.92453 °/min
Orbital period
91.73 mins
BSTAR
0.0020242
Loading maneuver chart data...
Computing Atmospheric mass density...
Loading historical data...
Loading historical data...
Loading historical data...
Loading historical data...
Loading historical data...
Loading historical data...
Loading historical data...

Documentation

Showing up to 5 results
|